Location: Invercargill
(46.4000°S, 168.3500°E)
Time: 02:45:05
(UTC+12:00)

Transit 4A - All Passes

Search period start: 18 July 2019 00:00
Search period end: 28 July 2019 00:00
Orbit: 862 x 982 km, 66.8° (Epoch: 16 July)

Date Brightness Start Highest point End Pass type
(mag) Time Alt. Az. Time Alt. Az. Time Alt. Az.
18 Jul - 00:09:56 10° SW 00:15:51 70° WNW 00:21:53 10° NNE night (unlit)
18 Jul - 01:59:15 10° W 02:01:09 12° W 02:03:04 10° WNW night (unlit)
18 Jul - 13:36:01 10° NE 13:39:34 17° ENE 13:43:05 10° ESE daylight
18 Jul - 15:19:15 10° NNW 15:25:06 86° WSW 15:31:00 10° SSE daylight
18 Jul - 17:07:50 10° W 17:12:19 22° SW 17:16:49 10° SSE daylight
18 Jul - 19:00:38 10° SSW 19:01:07 10° S 19:01:36 10° S visible
18 Jul - 20:47:44 10° S 20:50:25 13° SSE 20:53:07 10° SE visible
18 Jul - 22:33:07 10° SSW 22:38:36 37° SE 22:44:09 10° ENE visible
19 Jul - 00:19:24 10° SW 00:25:06 49° WNW 00:30:55 10° N night (unlit)
19 Jul - 13:43:58 10° NNE 13:48:36 25° ENE 13:53:14 10° SE daylight
19 Jul - 15:28:42 10° NW 15:34:30 62° SW 15:40:19 10° SSE daylight
19 Jul - 17:18:13 10° WSW 17:22:04 18° SSW 17:25:57 10° SSE daylight
19 Jul - 20:56:49 10° S 21:00:18 16° SSE 21:03:48 10° ESE visible
19 Jul - 22:42:21 10° SSW 22:48:07 50° SE 22:53:59 10° NE visible
20 Jul - 00:29:00 10° SW 00:34:18 34° WNW 00:39:40 10° N night (unlit)
20 Jul - 13:52:27 10° N 13:57:43 36° ENE 14:03:00 10° SE daylight
20 Jul - 15:38:23 10° WNW 15:43:57 45° SW 15:49:35 10° SSE daylight
20 Jul - 17:28:46 10° WSW 17:31:54 15° SSW 17:35:04 10° S daylight
20 Jul - 21:05:56 10° SSW 21:10:07 19° SSE 21:14:19 10° ESE visible
20 Jul - 22:51:37 10° SSW 22:57:34 69° SE 23:03:37 10° NE visible
21 Jul - 00:38:50 10° WSW 00:43:24 23° WNW 00:48:03 10° NNW night (unlit)
21 Jul - 14:01:15 10° N 14:06:54 53° ENE 14:12:34 10° SE daylight
21 Jul - 15:48:15 10° WNW 15:53:30 33° SW 15:58:48 10° SSE daylight
21 Jul - 17:39:29 10° SW 17:41:49 12° SSW 17:44:08 10° S daylight
21 Jul - 19:30:01 10° S 19:31:08 10° S 19:32:16 10° SSE visible
21 Jul - 21:15:05 10° SSW 21:19:50 24° SE 21:24:39 10° E visible
21 Jul - 23:00:57 10° SW 23:06:56 86° WNW 23:13:02 10° NNE visible
22 Jul - 00:49:04 10° WSW 00:52:27 16° WNW 00:55:51 10° NW night (unlit)
22 Jul - 12:28:31 10° NE 12:30:50 12° ENE 12:33:09 10° ESE daylight
22 Jul - 14:10:20 10° NNW 14:16:10 77° ENE 14:22:01 10° SE daylight
22 Jul - 15:58:19 10° W 16:03:08 26° SW 16:07:59 10° SSE daylight
22 Jul - 17:50:23 10° SSW 17:51:45 11° SSW 17:53:08 10° S daylight
22 Jul - 19:38:58 10° S 19:41:06 12° SSE 19:43:15 10° SE visible
22 Jul - 21:24:15 10° SSW 21:29:30 31° SE 21:34:49 10° ENE visible
22 Jul - 23:10:21 10° SW 23:16:13 61° WNW 23:22:14 10° NNE visible
23 Jul - 12:35:50 10° NNE 12:39:50 19° ENE 12:43:50 10° ESE daylight
23 Jul - 14:19:40 10° NW 14:25:30 77° SW 14:31:23 10° SSE daylight
23 Jul - 16:08:35 10° W 16:12:51 20° SSW 16:17:08 10° SSE daylight
23 Jul - 19:48:01 10° S 19:51:01 14° SSE 19:54:02 10° SE visible
23 Jul - 21:33:27 10° SSW 21:39:04 41° SE 21:44:47 10° ENE visible
23 Jul - 23:19:52 10° SW 23:25:27 43° WNW 23:31:09 10° N visible
24 Jul - 12:44:00 10° NNE 12:48:55 28° ENE 12:53:48 10° SE daylight
24 Jul - 14:29:13 10° NW 14:34:55 55° SW 14:40:41 10° SSE daylight
24 Jul - 16:19:01 10° WSW 16:22:38 16° SSW 16:26:16 10° S daylight
24 Jul - 19:57:07 10° SSW 20:00:52 17° SSE 20:04:40 10° ESE visible
24 Jul - 21:42:42 10° SSW 21:48:34 56° SE 21:54:32 10° NE visible
24 Jul - 23:29:32 10° SW 23:34:37 29° WNW 23:39:47 10° NNW night (unlit)
25 Jul - 12:52:37 10° N 12:58:03 42° ENE 13:03:29 10° SE daylight
25 Jul - 14:38:57 10° WNW 14:44:25 40° SW 14:49:56 10° SSE daylight
25 Jul - 16:29:38 10° SW 16:32:30 14° SSW 16:35:22 10° S daylight
25 Jul - 20:06:15 10° SSW 20:10:40 21° SSE 20:15:07 10° E visible
25 Jul - 21:52:00 10° SSW 21:57:59 77° SE 22:04:05 10° NE visible
25 Jul - 23:39:28 10° WSW 23:43:42 20° WNW 23:48:00 10° NNW night (unlit)
26 Jul - 13:01:32 10° NNW 13:07:16 61° ENE 13:13:01 10° SE daylight
26 Jul - 14:48:53 10° WNW 14:53:59 30° SW 14:59:08 10° SSE daylight
26 Jul - 16:40:24 10° SW 16:42:25 12° SSW 16:44:26 10° S daylight
26 Jul - 18:30:12 10° S 18:31:46 11° SSE 18:33:19 10° SSE visible
26 Jul - 20:15:24 10° SSW 20:20:21 26° SE 20:25:23 10° E visible
26 Jul - 22:01:21 10° SW 22:07:19 77° WNW 22:13:25 10° NNE visible
26 Jul - 23:50:01 10° WSW 23:52:43 13° WNW 23:55:28 10° NW night (unlit)
27 Jul - 11:28:01 10° NE 11:31:06 15° ENE 11:34:10 10° ESE daylight
27 Jul - 13:10:42 10° NNW 13:16:33 86° ENE 13:22:26 10° SE daylight
27 Jul - 14:59:02 10° W 15:03:39 24° SW 15:08:19 10° SSE daylight
27 Jul - 16:51:24 10° SSW 16:52:23 10° S 16:53:22 10° S daylight
27 Jul - 18:39:13 10° S 18:41:42 13° SSE 18:44:13 10° SE visible
27 Jul - 20:24:35 10° SSW 20:29:59 34° SE 20:35:29 10° ENE visible
27 Jul - 22:10:48 10° SW 22:16:36 54° WNW 22:22:31 10° NNE visible
